Regional Weather Roundup
Issued by NWS Charleston, SC

Current Version | Previous Version | Graphics & Text | Print | Product List | Glossary On
Versions: 1 2 3 4 5 6 7 8 9 10 11 12 13 14 15 16 17 18 19 20 21 22 23 24 25 26 27 28 29 30 31 32 33 34 35 36 37 38 39 40 41 42 43 44 45 46 47 48 49 50
000 ASUS42 KCHS 261712 RWRCHS REGIONAL WEATHER ROUNDUP NATIONAL WEATHER SERVICE CHARLESTON SC 100 PM EDT THU MAR 26 2015 NOTE: "FAIR" INDICATES FEW OR NO CLOUDS BELOW 12,000 FEET WITH NO SIGNIFICANT WEATHER AND/OR OBSTRUCTIONS TO VISIBILITY. NOT ALL STATIONS ARE QUALITY CONTROLLED BY THE NATIONAL WEATHER SERVICE. USE DATA WITH CAUTION...ESPECIALLY DEWPOINT OBSERVATIONS. SCZ027-030-031-034>040-042>050-261800- ...SOUTHEAST SOUTH CAROLINA... CITY SKY/WX TMP DP RH WIND PRES REMARKS N CHARLESTON PTSUNNY 77 60 55 SW12 29.95F WATERFRONT PRK N/A 72 N/A N/A S8 N/A MOUNT PLEASANT FAIR 73 63 68 S8 29.96F PINOPOLIS N/A 75 64 69 CALM 29.88F MONCKS CORNER CLOUDY 77 59 53 SW7 29.94F SUMMERVILLE NOT AVBL BEAUFORT MCAS PTSUNNY 78 60 53 SW8 29.96F BEAUFORT ARPT FAIR 73 64 73 S7 29.96F HILTON HEAD IS MOSUNNY 75 64 69 S6 29.98F WALTERBORO PTSUNNY 75 61 60 W8 29.95F ALLENDALE FAIR 77 57 50 VRB5G12 29.94F ...SOUTHERN MIDLANDS AND PEE DEE... CITY SKY/WX TMP DP RH WIND PRES REMARKS GEORGETOWN NOT AVBL KINGSTREE NOT AVBL ORANGEBURG PTSUNNY 73 60 63 SW8 29.94F BARNWELL PTSUNNY 75 61 60 SW8 29.94F AIKEN FAIR 73 55 53 SW10 29.96F MANNING CLOUDY 70 57 64 S8 29.94F COLUMBIA MOSUNNY 76 58 53 SW10G17 29.90F SUMTER PTSUNNY 73 58 60 SW15 29.91F FLORENCE CLOUDY 75 59 57 SW10G20 29.92F MYRTLE BEACH PTSUNNY 75 61 60 W12 29.97F N MYRTLE BEACH PTSUNNY 73 60 63 S13 29.95F $$ GAZ063-065-086>088-099>101-113>116-118-119-134>141-150-261800- ...SOUTHEAST GEORGIA... CITY SKY/WX TMP DP RH WIND PRES REMARKS SAVANNAH ARPT CLOUDY 80 54 40 SW12 29.96F HUNTER AAF MOSUNNY 77 62 60 SW10 29.94F FORT STEWART PTSUNNY 77 58 51 VRB7 29.96F STATESBORO MOSUNNY 76 59 55 SW10 29.95F SYLVANIA MOSUNNY 76 61 59 W6 29.96F CLAXTON FAIR 77 59 53 SW7G17 29.97F ...CSRA...CENTRAL AND FAR SOUTHEAST GEORGIA... CITY SKY/WX TMP DP RH WIND PRES REMARKS THOMSON CLOUDY 74 63 68 SW7 29.97F AUGUSTA-BUSH PTSUNNY 76 58 53 SW13G20 29.93F AUGUSTA-DANIEL MOSUNNY 75 57 53 SW8 29.93F SWAINSBORO CLOUDY 77 43 29 SW5 29.96F VIDALIA PTSUNNY 77 59 53 SW13 29.97F EASTMAN PTSUNNY 75 60 60 SW7 29.99F HAZLEHURST FAIR 77 59 53 S7 29.97F ALMA CLOUDY 77 59 53 S8 29.98S WAYCROSS PTSUNNY 79 63 58 S12 29.99S JESUP FAIR 79 63 57 S6 29.99F BAXLEY PTSUNNY 79 59 50 SW12 29.98S BRUNSWICK CLOUDY 75 59 57 S10 30.00F SAINT SIMONS CLOUDY 73 64 73 S7 29.99F $$ SCZ027-028-034-036>038-045-046-048>050-GAZ119-141-261800- ...LAKE AND SUPPLEMENTAL COASTAL OBSERVATIONS... STATION/POSITION TIME TEMP WIND PRES WAVE SWELL AIR SEA DIR/SP/G HT/PER HT/PER/DIR (UTC) (F) (DEG/KT/KT) (MB) (FT/S) (FT/S/D) UPR LAKE MARION NOT AVBL WINYAH BAY 1545 71 250/ 7 1015.0 LAKE MURRAY 1600 68 240/ 9/ 13 1013.5F ACE BASIN NERRS NOT AVBL FORT PULASKI 1600 70 61 200/ 7/ 11 1016.3F SAPELO ISLAND 1600 74 170/ 7 1016.0F $$ ANZ835-935-AMZ111-154-330-350-352-354-370-450-454-472-261800- ...C-MAN AND BUOY OBSERVATIONS... STATION/POSITION TIME TEMP WIND PRES WAVE SWELL AIR SEA DIR/SP/G HT/PER HT/PER/DIR (UTC) (F) (DEG/KT/KT) (MB) (FT/S) (FT/S/D) BUOY 41004 1650 68 71 250/ 10/ 12 1014.8F 6/ 8 5/ 8 BUOY 41008 1650 62 62 200/ 8/ 10 1015.5F 3/ 8 3/ 80/ 8 FOLLY BEACH CMAN 1700 61 210/ 13/ 14 1015.1F CAPERS NEARSHORE 1600 61 200/ 8/ 12 N/A FRIPP NEARSHORE 1600 62 220/ 8/ 10 1015.4F STATION/POSITION TIME TEMP WIND PRES WAVE SWELL AIR SEA DIR/SP/G HT/PER HT/PER/DIR (UTC) (F) (DEG/KT/KT) (MB) (FT/S) (FT/S/D) 5E ST. MARYS GA 1621 63 N/A 3/ 8 FRYING PAN BUOY 1650 69 69 240/ 16/ 17 1015.4F 7/ 8 7/130/ 8 BUOY 41025 NOT AVBL CAPE LOOKOUT NC 1700 65 160/ 24/ 26 1013.7F BUOY 41002 1650 70 69 170/ 23/ 27 1018.8F 8/ 7 BUOY 41010 1620 76 76 170/ 14/ 16 1017.9F ST AUGUSTINE FL 1700 67 64 CALM 1017.0F $$

USA.gov is the U.S. government's official web portal to all federal, state and local government web resources and services.